Location: Dos Palmas
(32.4468°N, 116.8732°W)
Time: 05:34:30
(UTC+00:00)

Cosmos 2278 Rocket - Pass Details

Date: 20 June 2021
Orbit: 840 x 846 km, 71.0° (Epoch: 29 July)

Event Time Altitude Azimuth Distance (km) Brightness Sun altitude
Rises 05:56:30 0° 351° (N) 3,405 6.4 -28.0°
Reaches altitude 10° 05:59:17 10° 3° (N) 2,468 5.3 -28.3°
Enters shadow 06:04:03 29° 60° (ENE) 1,491 3.4 -28.7°
